Year,Month,Day,Hour,Minute,Value (Times are PST for temperature in C)
2012,04,21,00,00,6.20
2012,04,21,00,01,6.20
2012,04,21,00,02,6.20
2012,04,21,00,03,6.20
2012,04,21,00,04,6.20
2012,04,21,00,05,6.20
2012,04,21,00,06,6.20
2012,04,21,00,07,6.10
2012,04,21,00,08,6.10
2012,04,21,00,09,6.10
2012,04,21,00,10,6.00
2012,04,21,00,11,6.00
2012,04,21,00,12,6.00
2012,04,21,00,13,6.00
2012,04,21,00,14,6.00
2012,04,21,00,15,6.00
2012,04,21,00,16,6.00
2012,04,21,00,17,5.90
2012,04,21,00,18,5.90
2012,04,21,00,19,5.90
2012,04,21,00,20,5.90
2012,04,21,00,21,5.80
2012,04,21,00,22,5.80
2012,04,21,00,23,5.70
2012,04,21,00,24,5.60
2012,04,21,00,25,5.60
2012,04,21,00,26,5.60
2012,04,21,00,27,5.60
2012,04,21,00,28,5.60
2012,04,21,00,29,5.60
2012,04,21,00,30,5.60
2012,04,21,00,31,5.50
2012,04,21,00,32,5.50
2012,04,21,00,33,5.40
2012,04,21,00,34,5.40
2012,04,21,00,35,5.40
2012,04,21,00,36,5.30
2012,04,21,00,37,5.40
2012,04,21,00,38,5.40
2012,04,21,00,39,5.40
2012,04,21,00,40,5.40
2012,04,21,00,41,5.40
2012,04,21,00,42,5.40
2012,04,21,00,43,5.40
2012,04,21,00,44,5.50
2012,04,21,00,45,5.50
2012,04,21,00,46,5.50
2012,04,21,00,47,5.50
2012,04,21,00,48,5.50
2012,04,21,00,49,5.50
2012,04,21,00,50,5.50
2012,04,21,00,51,5.40
2012,04,21,00,52,5.40
2012,04,21,00,53,5.30
2012,04,21,00,54,5.30
2012,04,21,00,55,5.30
2012,04,21,00,56,5.30
2012,04,21,00,57,5.20
2012,04,21,00,58,5.20
2012,04,21,00,59,5.20
2012,04,21,01,00,5.20
2012,04,21,01,01,5.20
2012,04,21,01,02,5.20
2012,04,21,01,03,5.10
2012,04,21,01,04,5.10
2012,04,21,01,05,5.10
2012,04,21,01,06,5.10
2012,04,21,01,07,5.10
2012,04,21,01,08,5.10
2012,04,21,01,09,5.10
2012,04,21,01,10,5.10
2012,04,21,01,11,5.10
2012,04,21,01,12,5.10
2012,04,21,01,13,5.10
2012,04,21,01,14,5.20
2012,04,21,01,15,5.30
2012,04,21,01,16,5.40
2012,04,21,01,17,5.50
2012,04,21,01,18,5.50
2012,04,21,01,19,5.60
2012,04,21,01,20,5.70
2012,04,21,01,21,5.70
2012,04,21,01,22,5.70
2012,04,21,01,23,5.70
2012,04,21,01,24,5.70
2012,04,21,01,25,5.60
2012,04,21,01,26,5.50
2012,04,21,01,27,5.50
2012,04,21,01,28,5.40
2012,04,21,01,29,5.30
2012,04,21,01,30,5.20
2012,04,21,01,31,5.20
2012,04,21,01,32,5.10
2012,04,21,01,33,5.10
2012,04,21,01,34,5.10
2012,04,21,01,35,5.10
2012,04,21,01,36,5.10
2012,04,21,01,37,5.20
2012,04,21,01,38,5.30
2012,04,21,01,39,5.50
2012,04,21,01,40,5.50
2012,04,21,01,41,5.60
2012,04,21,01,42,5.70
2012,04,21,01,43,5.70
2012,04,21,01,44,5.70
2012,04,21,01,45,5.70
2012,04,21,01,46,5.60
2012,04,21,01,47,5.50
2012,04,21,01,48,5.50
2012,04,21,01,49,5.30
2012,04,21,01,50,5.30
2012,04,21,01,51,5.20
2012,04,21,01,52,5.20
2012,04,21,01,53,5.20
2012,04,21,01,54,5.20
2012,04,21,01,55,5.10
2012,04,21,01,56,5.10
2012,04,21,01,57,5.00
2012,04,21,01,58,4.90
2012,04,21,01,59,4.80
2012,04,21,02,00,4.70
2012,04,21,02,01,4.60
2012,04,21,02,02,4.50
2012,04,21,02,03,4.40
2012,04,21,02,04,4.40
2012,04,21,02,05,4.30
2012,04,21,02,06,4.20
2012,04,21,02,07,4.20
2012,04,21,02,08,4.20
2012,04,21,02,09,4.10
2012,04,21,02,10,4.10
2012,04,21,02,11,4.10
2012,04,21,02,12,4.00
2012,04,21,02,13,4.00
2012,04,21,02,14,4.00
2012,04,21,02,15,4.00
2012,04,21,02,16,3.90
2012,04,21,02,17,3.90
2012,04,21,02,18,3.90
2012,04,21,02,19,3.90
2012,04,21,02,20,3.90
2012,04,21,02,21,3.90
2012,04,21,02,22,3.90
2012,04,21,02,23,3.80
2012,04,21,02,24,3.80
2012,04,21,02,25,3.80
2012,04,21,02,26,3.80
2012,04,21,02,27,3.80
2012,04,21,02,28,3.80
2012,04,21,02,29,3.80
2012,04,21,02,30,3.80
2012,04,21,02,31,3.80
2012,04,21,02,32,3.80
2012,04,21,02,33,3.80
2012,04,21,02,34,3.80
2012,04,21,02,35,3.90
2012,04,21,02,36,4.00
2012,04,21,02,37,4.00
2012,04,21,02,38,4.10
2012,04,21,02,39,4.10
2012,04,21,02,40,4.20
2012,04,21,02,41,4.20
2012,04,21,02,42,4.20
2012,04,21,02,43,4.20
2012,04,21,02,44,4.20
2012,04,21,02,45,4.20
2012,04,21,02,46,4.20
2012,04,21,02,47,4.20
2012,04,21,02,48,4.20
2012,04,21,02,49,4.20
2012,04,21,02,50,4.20
2012,04,21,02,51,4.20
2012,04,21,02,52,4.20
2012,04,21,02,53,4.20
2012,04,21,02,54,4.20
2012,04,21,02,55,4.20
2012,04,21,02,56,4.20
2012,04,21,02,57,4.10
2012,04,21,02,58,4.10
2012,04,21,02,59,4.10
2012,04,21,03,00,4.10
2012,04,21,03,01,4.00
2012,04,21,03,02,4.00
2012,04,21,03,03,4.00
2012,04,21,03,04,4.00
2012,04,21,03,05,3.90
2012,04,21,03,06,4.00
2012,04,21,03,07,4.00
2012,04,21,03,08,4.00
2012,04,21,03,09,3.90
2012,04,21,03,10,3.90
2012,04,21,03,11,3.90
2012,04,21,03,12,3.90
2012,04,21,03,13,3.90
2012,04,21,03,14,3.90
2012,04,21,03,15,3.80
2012,04,21,03,16,3.80
2012,04,21,03,17,3.80
2012,04,21,03,18,3.80
2012,04,21,03,19,3.80
2012,04,21,03,20,3.80
2012,04,21,03,21,3.70
2012,04,21,03,22,3.70
2012,04,21,03,23,3.70
2012,04,21,03,24,3.70
2012,04,21,03,25,3.70
2012,04,21,03,26,3.70
2012,04,21,03,27,3.70
2012,04,21,03,28,3.70
2012,04,21,03,29,3.70
2012,04,21,03,30,3.70
2012,04,21,03,31,3.70
2012,04,21,03,32,3.70
2012,04,21,03,33,3.70
2012,04,21,03,34,3.70
2012,04,21,03,35,3.70
2012,04,21,03,36,3.70
2012,04,21,03,37,3.60
2012,04,21,03,38,3.60
2012,04,21,03,39,3.60
2012,04,21,03,40,3.60
2012,04,21,03,41,3.60
2012,04,21,03,42,3.50
2012,04,21,03,43,3.50
2012,04,21,03,44,3.50
2012,04,21,03,45,3.50
2012,04,21,03,46,3.50
2012,04,21,03,47,3.50
2012,04,21,03,48,3.50
2012,04,21,03,49,3.40
2012,04,21,03,50,3.40
2012,04,21,03,51,3.40
2012,04,21,03,52,3.40
2012,04,21,03,53,3.40
2012,04,21,03,54,3.30
2012,04,21,03,55,3.30
2012,04,21,03,56,3.30
2012,04,21,03,57,3.30
2012,04,21,03,58,3.40
2012,04,21,03,59,3.40
2012,04,21,04,00,3.40
2012,04,21,04,01,3.50
2012,04,21,04,02,3.50
2012,04,21,04,03,3.60
2012,04,21,04,04,3.70
2012,04,21,04,05,3.90
2012,04,21,04,06,4.00
2012,04,21,04,07,4.20
2012,04,21,04,08,4.30
2012,04,21,04,09,4.50
2012,04,21,04,10,4.50
2012,04,21,04,11,4.60
2012,04,21,04,12,4.70
2012,04,21,04,13,4.70
2012,04,21,04,14,4.80
2012,04,21,04,15,4.80
2012,04,21,04,16,4.80
2012,04,21,04,17,4.90
2012,04,21,04,18,4.90
2012,04,21,04,19,4.90
2012,04,21,04,20,4.90
2012,04,21,04,21,4.90
2012,04,21,04,22,4.80
2012,04,21,04,23,4.70
2012,04,21,04,24,4.70
2012,04,21,04,25,4.60
2012,04,21,04,26,4.60
2012,04,21,04,27,4.60
2012,04,21,04,28,4.60
2012,04,21,04,29,4.50
2012,04,21,04,30,4.40
2012,04,21,04,31,4.30
2012,04,21,04,32,4.20
2012,04,21,04,33,4.00
2012,04,21,04,34,4.00
2012,04,21,04,35,3.80
2012,04,21,04,36,3.80
2012,04,21,04,37,3.70
2012,04,21,04,38,3.70
2012,04,21,04,39,3.60
2012,04,21,04,40,3.60
2012,04,21,04,41,3.50
2012,04,21,04,42,3.50
2012,04,21,04,43,3.50
2012,04,21,04,44,3.50
2012,04,21,04,45,3.50
2012,04,21,04,46,3.50
2012,04,21,04,47,3.50
2012,04,21,04,48,3.50
2012,04,21,04,49,3.50
2012,04,21,04,50,3.50
2012,04,21,04,51,3.50
2012,04,21,04,52,3.50
2012,04,21,04,53,3.40
2012,04,21,04,54,3.40
2012,04,21,04,55,3.40
2012,04,21,04,56,3.40
2012,04,21,04,57,3.30
2012,04,21,04,58,3.30
2012,04,21,04,59,3.40
2012,04,21,05,00,3.40
2012,04,21,05,01,3.50
2012,04,21,05,02,3.50
2012,04,21,05,03,3.60
2012,04,21,05,04,3.60
2012,04,21,05,05,3.60
2012,04,21,05,06,3.60
2012,04,21,05,07,3.50
2012,04,21,05,08,3.50
2012,04,21,05,09,3.50
2012,04,21,05,10,3.40
2012,04,21,05,11,3.40
2012,04,21,05,12,3.40
2012,04,21,05,13,3.40
2012,04,21,05,14,3.30
2012,04,21,05,15,3.30
2012,04,21,05,16,3.30
2012,04,21,05,17,3.30
2012,04,21,05,18,3.30
2012,04,21,05,19,3.30
2012,04,21,05,20,3.30
2012,04,21,05,21,3.30
2012,04,21,05,22,3.30
2012,04,21,05,23,3.30
2012,04,21,05,24,3.30
2012,04,21,05,25,3.30
2012,04,21,05,26,3.30
2012,04,21,05,27,3.30
2012,04,21,05,28,3.40
2012,04,21,05,29,3.40
2012,04,21,05,30,3.40
2012,04,21,05,31,3.40
2012,04,21,05,32,3.40
2012,04,21,05,33,3.30
2012,04,21,05,34,3.30
2012,04,21,05,35,3.30
2012,04,21,05,36,3.30
2012,04,21,05,37,3.30
2012,04,21,05,38,3.30
2012,04,21,05,39,3.30
2012,04,21,05,40,3.30
2012,04,21,05,41,3.30
2012,04,21,05,42,3.30
2012,04,21,05,43,3.30
2012,04,21,05,44,3.40
2012,04,21,05,45,3.50
2012,04,21,05,46,3.70
2012,04,21,05,47,3.90
2012,04,21,05,48,4.00
2012,04,21,05,49,4.00
2012,04,21,05,50,4.10
2012,04,21,05,51,4.00
2012,04,21,05,52,4.00
2012,04,21,05,53,4.00
2012,04,21,05,54,3.90
2012,04,21,05,55,3.90
2012,04,21,05,56,3.80
2012,04,21,05,57,3.80
2012,04,21,05,58,3.80
2012,04,21,05,59,3.80
2012,04,21,06,00,3.80
2012,04,21,06,01,3.80
2012,04,21,06,02,3.80
2012,04,21,06,03,3.80
2012,04,21,06,04,3.70
2012,04,21,06,05,3.70
2012,04,21,06,06,3.70
2012,04,21,06,07,3.70
2012,04,21,06,08,3.70
2012,04,21,06,09,3.70
2012,04,21,06,10,3.70
2012,04,21,06,11,3.70
2012,04,21,06,12,3.80
2012,04,21,06,13,3.80
2012,04,21,06,14,3.80
2012,04,21,06,15,3.80
2012,04,21,06,16,3.80
2012,04,21,06,17,3.80
2012,04,21,06,18,3.80
2012,04,21,06,19,3.80
2012,04,21,06,20,3.90
2012,04,21,06,21,3.90
2012,04,21,06,22,4.00
2012,04,21,06,23,4.00
2012,04,21,06,24,4.10
2012,04,21,06,25,4.10
2012,04,21,06,26,4.10
2012,04,21,06,27,4.10
2012,04,21,06,28,4.10
2012,04,21,06,29,4.10
2012,04,21,06,30,4.00
2012,04,21,06,31,4.00
2012,04,21,06,32,3.90
2012,04,21,06,33,3.90
2012,04,21,06,34,3.80
2012,04,21,06,35,3.80
2012,04,21,06,36,3.80
2012,04,21,06,37,3.80
2012,04,21,06,38,3.80
2012,04,21,06,39,3.80
2012,04,21,06,40,3.80
2012,04,21,06,41,3.80
2012,04,21,06,42,3.80
2012,04,21,06,43,3.80
2012,04,21,06,44,3.80
2012,04,21,06,45,3.80
2012,04,21,06,46,3.80
2012,04,21,06,47,3.90
2012,04,21,06,48,3.90
2012,04,21,06,49,3.90
2012,04,21,06,50,3.90
2012,04,21,06,51,3.90
2012,04,21,06,52,3.90
2012,04,21,06,53,3.90
2012,04,21,06,54,3.90
2012,04,21,06,55,4.00
2012,04,21,06,56,4.00
2012,04,21,06,57,4.00
2012,04,21,06,58,4.00
2012,04,21,06,59,4.10
2012,04,21,07,00,4.10
2012,04,21,07,01,4.20
2012,04,21,07,02,4.20
2012,04,21,07,03,4.20
2012,04,21,07,04,4.20
2012,04,21,07,05,4.20
2012,04,21,07,06,4.30
2012,04,21,07,07,4.40
2012,04,21,07,08,4.50
2012,04,21,07,09,4.50
2012,04,21,07,10,4.60
2012,04,21,07,11,4.70
2012,04,21,07,12,4.80
2012,04,21,07,13,4.90
2012,04,21,07,14,5.00
2012,04,21,07,15,5.10
2012,04,21,07,16,5.10
2012,04,21,07,17,5.20
2012,04,21,07,18,5.30
2012,04,21,07,19,5.40
2012,04,21,07,20,5.50
2012,04,21,07,21,5.60
2012,04,21,07,22,5.60
2012,04,21,07,23,5.70
2012,04,21,07,24,5.70
2012,04,21,07,25,5.80
2012,04,21,07,26,5.90
2012,04,21,07,27,5.90
2012,04,21,07,28,5.90
2012,04,21,07,29,6.00
2012,04,21,07,30,6.00
2012,04,21,07,31,6.00
2012,04,21,07,32,6.10
2012,04,21,07,33,6.10
2012,04,21,07,34,6.10
2012,04,21,07,35,6.20
2012,04,21,07,36,6.20
2012,04,21,07,37,6.20
2012,04,21,07,38,6.20
2012,04,21,07,39,6.20
2012,04,21,07,40,6.20
2012,04,21,07,41,6.20
2012,04,21,07,42,6.30
2012,04,21,07,43,6.30
2012,04,21,07,44,6.30
2012,04,21,07,45,6.30
2012,04,21,07,46,6.40
2012,04,21,07,47,6.40
2012,04,21,07,48,6.40
2012,04,21,07,49,6.50
2012,04,21,07,50,6.60
2012,04,21,07,51,6.60
2012,04,21,07,52,6.60
2012,04,21,07,53,6.70
2012,04,21,07,54,6.70
2012,04,21,07,55,6.80
2012,04,21,07,56,6.80
2012,04,21,07,57,6.80
2012,04,21,07,58,6.80
2012,04,21,07,59,6.90
2012,04,21,08,00,6.90
2012,04,21,08,01,7.00
2012,04,21,08,02,7.00
2012,04,21,08,03,7.00
2012,04,21,08,04,7.10
2012,04,21,08,05,7.10
2012,04,21,08,06,7.20
2012,04,21,08,07,7.30
2012,04,21,08,08,7.30
2012,04,21,08,09,7.30
2012,04,21,08,10,7.40
2012,04,21,08,11,7.40
2012,04,21,08,12,7.50
2012,04,21,08,13,7.50
2012,04,21,08,14,7.50
2012,04,21,08,15,7.50
2012,04,21,08,16,7.60
2012,04,21,08,17,7.60
2012,04,21,08,18,7.70
2012,04,21,08,19,7.70
2012,04,21,08,20,7.80
2012,04,21,08,21,7.80
2012,04,21,08,22,7.80
2012,04,21,08,23,7.80
2012,04,21,08,24,7.90
2012,04,21,08,25,7.90
2012,04,21,08,26,8.00
2012,04,21,08,27,8.00
2012,04,21,08,28,8.00
2012,04,21,08,29,8.10
2012,04,21,08,30,8.20
2012,04,21,08,31,8.20
2012,04,21,08,32,8.30
2012,04,21,08,33,8.40
2012,04,21,08,34,8.50
2012,04,21,08,35,8.50
2012,04,21,08,36,8.50
2012,04,21,08,37,8.50
2012,04,21,08,38,8.60
2012,04,21,08,39,8.60
2012,04,21,08,40,8.70
2012,04,21,08,41,8.70
2012,04,21,08,42,8.70
2012,04,21,08,43,8.70
2012,04,21,08,44,8.70
2012,04,21,08,45,8.80
2012,04,21,08,46,8.90
2012,04,21,08,47,8.90
2012,04,21,08,48,8.90
2012,04,21,08,49,9.00
2012,04,21,08,50,9.10
2012,04,21,08,51,9.20
2012,04,21,08,52,9.20
2012,04,21,08,53,9.20
2012,04,21,08,54,9.20
2012,04,21,08,55,9.20
2012,04,21,08,56,9.10
2012,04,21,08,57,9.10
2012,04,21,08,58,9.20
2012,04,21,08,59,9.20
2012,04,21,09,00,9.30
2012,04,21,09,01,9.40
2012,04,21,09,02,9.40
2012,04,21,09,03,9.50
2012,04,21,09,04,9.50
2012,04,21,09,05,9.50
2012,04,21,09,06,9.50
2012,04,21,09,07,9.50
2012,04,21,09,08,9.60
2012,04,21,09,09,9.60
2012,04,21,09,10,9.70
2012,04,21,09,11,9.70
2012,04,21,09,12,9.80
2012,04,21,09,13,9.90
2012,04,21,09,14,10.00
2012,04,21,09,15,10.10
2012,04,21,09,16,10.20
2012,04,21,09,17,10.20
2012,04,21,09,18,10.30
2012,04,21,09,19,10.20
2012,04,21,09,20,10.10
2012,04,21,09,21,10.10
2012,04,21,09,22,10.00
2012,04,21,09,23,9.90
2012,04,21,09,24,9.90
2012,04,21,09,25,9.90
2012,04,21,09,26,10.00
2012,04,21,09,27,9.90
2012,04,21,09,28,9.90
2012,04,21,09,29,9.90
2012,04,21,09,30,9.90
2012,04,21,09,31,9.90
2012,04,21,09,32,9.90
2012,04,21,09,33,9.90
2012,04,21,09,34,10.10
2012,04,21,09,35,10.10
2012,04,21,09,36,10.10
2012,04,21,09,37,10.20
2012,04,21,09,38,10.30
2012,04,21,09,39,10.40
2012,04,21,09,40,10.50
2012,04,21,09,41,10.60
2012,04,21,09,42,10.60
2012,04,21,09,43,10.60
2012,04,21,09,44,10.60
2012,04,21,09,45,10.70
2012,04,21,09,46,10.60
2012,04,21,09,47,10.60
2012,04,21,09,48,10.60
2012,04,21,09,49,10.60
2012,04,21,09,50,10.60
2012,04,21,09,51,10.60
2012,04,21,09,52,10.60
2012,04,21,09,53,10.50
2012,04,21,09,54,10.40
2012,04,21,09,55,10.40
2012,04,21,09,56,10.30
2012,04,21,09,57,10.20
2012,04,21,09,58,10.20
2012,04,21,09,59,10.20
2012,04,21,10,00,10.30
2012,04,21,10,01,10.40
2012,04,21,10,02,10.40
2012,04,21,10,03,10.50
2012,04,21,10,04,10.60
2012,04,21,10,05,10.70
2012,04,21,10,06,10.80
2012,04,21,10,07,10.90
2012,04,21,10,08,11.00
2012,04,21,10,09,11.10
2012,04,21,10,10,11.20
2012,04,21,10,11,11.20
2012,04,21,10,12,11.20
2012,04,21,10,13,11.20
2012,04,21,10,14,11.20
2012,04,21,10,15,11.30
2012,04,21,10,16,11.40
2012,04,21,10,17,11.40
2012,04,21,10,18,11.40
2012,04,21,10,19,11.40
2012,04,21,10,20,11.40
2012,04,21,10,21,11.40
2012,04,21,10,22,11.40
2012,04,21,10,23,11.30
2012,04,21,10,24,11.20
2012,04,21,10,25,11.20
2012,04,21,10,26,11.10
2012,04,21,10,27,11.10
2012,04,21,10,28,11.10
2012,04,21,10,29,11.10
2012,04,21,10,30,11.10
2012,04,21,10,31,11.10
2012,04,21,10,32,11.10
2012,04,21,10,33,11.10
2012,04,21,10,34,11.10
2012,04,21,10,35,11.20
2012,04,21,10,36,11.40
2012,04,21,10,37,11.60
2012,04,21,10,38,11.80
2012,04,21,10,39,11.90
2012,04,21,10,40,12.00
2012,04,21,10,41,12.20
2012,04,21,10,42,12.20
2012,04,21,10,43,12.20
2012,04,21,10,44,12.20
2012,04,21,10,45,12.10
2012,04,21,10,46,12.00
2012,04,21,10,47,12.00
2012,04,21,10,48,12.00
2012,04,21,10,49,11.80
2012,04,21,10,50,11.70
2012,04,21,10,51,11.60
2012,04,21,10,52,11.60
2012,04,21,10,53,11.70
2012,04,21,10,54,11.80
2012,04,21,10,55,11.80
2012,04,21,10,56,11.70
2012,04,21,10,57,11.60
2012,04,21,10,58,11.60
2012,04,21,10,59,11.70
2012,04,21,11,00,11.70
2012,04,21,11,01,11.70
2012,04,21,11,02,11.80
2012,04,21,11,03,11.80
2012,04,21,11,04,11.90
2012,04,21,11,05,12.00
2012,04,21,11,06,12.10
2012,04,21,11,07,12.20
2012,04,21,11,08,12.30
2012,04,21,11,09,12.30
2012,04,21,11,10,12.30
2012,04,21,11,11,12.40
2012,04,21,11,12,12.50
2012,04,21,11,13,12.60
2012,04,21,11,14,12.60
2012,04,21,11,15,12.60
2012,04,21,11,16,12.60
2012,04,21,11,17,12.60
2012,04,21,11,18,12.60
2012,04,21,11,19,12.60
2012,04,21,11,20,12.60
2012,04,21,11,21,12.70
2012,04,21,11,22,12.80
2012,04,21,11,23,12.80
2012,04,21,11,24,12.90
2012,04,21,11,25,12.90
2012,04,21,11,26,12.90
2012,04,21,11,27,13.00
2012,04,21,11,28,13.10
2012,04,21,11,29,13.20
2012,04,21,11,30,13.20
2012,04,21,11,31,13.30
2012,04,21,11,32,13.30
2012,04,21,11,33,13.20
2012,04,21,11,34,13.10
2012,04,21,11,35,13.00
2012,04,21,11,36,12.90
2012,04,21,11,37,12.90
2012,04,21,11,38,12.90
2012,04,21,11,39,12.90
2012,04,21,11,40,13.00
2012,04,21,11,41,13.00
2012,04,21,11,42,13.00
2012,04,21,11,43,12.90
2012,04,21,11,44,12.90
2012,04,21,11,45,12.90
2012,04,21,11,46,12.80
2012,04,21,11,47,12.70
2012,04,21,11,48,12.60
2012,04,21,11,49,12.60
2012,04,21,11,50,12.60
2012,04,21,11,51,12.60
2012,04,21,11,52,12.60
2012,04,21,11,53,12.60
2012,04,21,11,54,12.60
2012,04,21,11,55,12.60
2012,04,21,11,56,12.50
2012,04,21,11,57,12.50
2012,04,21,11,58,12.60
2012,04,21,11,59,12.70
2012,04,21,12,00,12.70
2012,04,21,12,01,12.80
2012,04,21,12,02,12.80
2012,04,21,12,03,12.70
2012,04,21,12,04,12.60
2012,04,21,12,05,12.60
2012,04,21,12,06,12.50
2012,04,21,12,07,12.50
2012,04,21,12,08,12.50
2012,04,21,12,09,12.50
2012,04,21,12,10,12.40
2012,04,21,12,11,12.40
2012,04,21,12,12,12.40
2012,04,21,12,13,12.40
2012,04,21,12,14,12.40
2012,04,21,12,15,12.30
2012,04,21,12,16,12.30
2012,04,21,12,17,12.40
2012,04,21,12,18,12.40
2012,04,21,12,19,12.40
2012,04,21,12,20,12.30
2012,04,21,12,21,12.30
2012,04,21,12,22,12.30
2012,04,21,12,23,12.30
2012,04,21,12,24,12.30
2012,04,21,12,25,12.40
2012,04,21,12,26,12.40
2012,04,21,12,27,12.50
2012,04,21,12,28,12.50
2012,04,21,12,29,12.50
2012,04,21,12,30,12.60
2012,04,21,12,31,12.60
2012,04,21,12,32,12.60
2012,04,21,12,33,12.60
2012,04,21,12,34,12.50
2012,04,21,12,35,12.50
2012,04,21,12,36,12.40
2012,04,21,12,37,12.30
2012,04,21,12,38,12.30
2012,04,21,12,39,12.40
2012,04,21,12,40,12.40
2012,04,21,12,41,12.50
2012,04,21,12,42,12.50
2012,04,21,12,43,12.40
2012,04,21,12,44,12.30
2012,04,21,12,45,12.30
2012,04,21,12,46,12.30
2012,04,21,12,47,12.30
2012,04,21,12,48,12.50
2012,04,21,12,49,12.50
2012,04,21,12,50,12.70
2012,04,21,12,51,12.70
2012,04,21,12,52,12.70
2012,04,21,12,53,12.60
2012,04,21,12,54,12.60
2012,04,21,12,55,12.70
2012,04,21,12,56,12.70
2012,04,21,12,57,12.80
2012,04,21,12,58,12.80
2012,04,21,12,59,12.80
2012,04,21,13,00,12.80
2012,04,21,13,01,12.90
2012,04,21,13,02,13.00
2012,04,21,13,03,13.00
2012,04,21,13,04,13.00
2012,04,21,13,05,13.00
2012,04,21,13,06,13.10
2012,04,21,13,07,13.10
2012,04,21,13,08,13.10
2012,04,21,13,09,13.10
2012,04,21,13,10,13.10
2012,04,21,13,11,13.10
2012,04,21,13,12,13.00
2012,04,21,13,13,13.00
2012,04,21,13,14,13.00
2012,04,21,13,15,13.00
2012,04,21,13,16,13.00
2012,04,21,13,17,13.10
2012,04,21,13,18,13.20
2012,04,21,13,19,13.20
2012,04,21,13,20,13.30
2012,04,21,13,21,13.50
2012,04,21,13,22,13.50
2012,04,21,13,23,13.50
2012,04,21,13,24,13.50
2012,04,21,13,25,13.50
2012,04,21,13,26,13.40
2012,04,21,13,27,13.30
2012,04,21,13,28,13.30
2012,04,21,13,29,13.30
2012,04,21,13,30,13.30
2012,04,21,13,31,13.30
2012,04,21,13,32,13.20
2012,04,21,13,33,13.10
2012,04,21,13,34,13.10
2012,04,21,13,35,13.20
2012,04,21,13,36,13.30
2012,04,21,13,37,13.40
2012,04,21,13,38,13.50
2012,04,21,13,39,13.70
2012,04,21,13,40,13.80
2012,04,21,13,41,13.80
2012,04,21,13,42,13.70
2012,04,21,13,43,13.70
2012,04,21,13,44,13.70
2012,04,21,13,45,13.70
2012,04,21,13,46,13.70
2012,04,21,13,47,13.70
2012,04,21,13,48,13.70
2012,04,21,13,49,13.80
2012,04,21,13,50,13.80
2012,04,21,13,51,13.80
2012,04,21,13,52,13.70
2012,04,21,13,53,13.60
2012,04,21,13,54,13.50
2012,04,21,13,55,13.60
2012,04,21,13,56,13.60
2012,04,21,13,57,13.70
2012,04,21,13,58,13.70
2012,04,21,13,59,13.70
2012,04,21,14,00,13.70
2012,04,21,14,01,13.70
2012,04,21,14,02,13.70
2012,04,21,14,03,13.70
2012,04,21,14,04,13.70
2012,04,21,14,05,13.60
2012,04,21,14,06,13.60
2012,04,21,14,07,13.60
2012,04,21,14,08,13.70
2012,04,21,14,09,13.80
2012,04,21,14,10,13.80
2012,04,21,14,11,13.90
2012,04,21,14,12,14.10
2012,04,21,14,13,14.20
2012,04,21,14,14,14.20
2012,04,21,14,15,14.20
2012,04,21,14,16,14.20
2012,04,21,14,17,14.20
2012,04,21,14,18,14.20
2012,04,21,14,19,14.20
2012,04,21,14,20,14.20
2012,04,21,14,21,14.30
2012,04,21,14,22,14.50
2012,04,21,14,23,14.50
2012,04,21,14,24,14.50
2012,04,21,14,25,14.60
2012,04,21,14,26,14.70
2012,04,21,14,27,14.70
2012,04,21,14,28,14.80
2012,04,21,14,29,14.80
2012,04,21,14,30,14.80
2012,04,21,14,31,14.80
2012,04,21,14,32,14.80
2012,04,21,14,33,14.80
2012,04,21,14,34,14.80
2012,04,21,14,35,14.80
2012,04,21,14,36,14.90
2012,04,21,14,37,14.90
2012,04,21,14,38,14.90
2012,04,21,14,39,14.90
2012,04,21,14,40,14.90
2012,04,21,14,41,14.80
2012,04,21,14,42,14.60
2012,04,21,14,43,14.50
2012,04,21,14,44,14.40
2012,04,21,14,45,14.40
2012,04,21,14,46,14.40
2012,04,21,14,47,14.50
2012,04,21,14,48,14.60
2012,04,21,14,49,14.60
2012,04,21,14,50,14.60
2012,04,21,14,51,14.60
2012,04,21,14,52,14.70
2012,04,21,14,53,14.80
2012,04,21,14,54,14.90
2012,04,21,14,55,15.10
2012,04,21,14,56,15.20
2012,04,21,14,57,15.30
2012,04,21,14,58,15.20
2012,04,21,14,59,15.10
2012,04,21,15,00,15.10
2012,04,21,15,01,15.10
2012,04,21,15,02,15.10
2012,04,21,15,03,15.10
2012,04,21,15,04,15.00
2012,04,21,15,05,14.90
2012,04,21,15,06,15.00
2012,04,21,15,07,15.10
2012,04,21,15,08,15.10
2012,04,21,15,09,15.10
2012,04,21,15,10,15.20
2012,04,21,15,11,15.00
2012,04,21,15,12,15.00
2012,04,21,15,13,15.00
2012,04,21,15,14,15.10
2012,04,21,15,15,15.10
2012,04,21,15,16,15.20
2012,04,21,15,17,15.30
2012,04,21,15,18,15.30
2012,04,21,15,19,15.40
2012,04,21,15,20,15.50
2012,04,21,15,21,15.60
2012,04,21,15,22,15.80
2012,04,21,15,23,15.70
2012,04,21,15,24,15.70
2012,04,21,15,25,15.70
2012,04,21,15,26,15.70
2012,04,21,15,27,15.70
2012,04,21,15,28,15.70
2012,04,21,15,29,15.80
2012,04,21,15,30,15.80
2012,04,21,15,31,15.80
2012,04,21,15,32,15.80
2012,04,21,15,33,15.60
2012,04,21,15,34,15.50
2012,04,21,15,35,15.40
2012,04,21,15,36,15.30
2012,04,21,15,37,15.40
2012,04,21,15,38,15.40
2012,04,21,15,39,15.40
2012,04,21,15,40,15.30
2012,04,21,15,41,15.30
2012,04,21,15,42,15.30
2012,04,21,15,43,15.30
2012,04,21,15,44,15.30
2012,04,21,15,45,15.30
2012,04,21,15,46,15.40
2012,04,21,15,47,15.50
2012,04,21,15,48,15.60
2012,04,21,15,49,15.70
2012,04,21,15,50,15.80
2012,04,21,15,51,15.70
2012,04,21,15,52,15.70
2012,04,21,15,53,15.60
2012,04,21,15,54,15.60
2012,04,21,15,55,15.50
2012,04,21,15,56,15.50
2012,04,21,15,57,15.60
2012,04,21,15,58,15.60
2012,04,21,15,59,15.70
2012,04,21,16,00,15.80
2012,04,21,16,01,15.80
2012,04,21,16,02,15.70
2012,04,21,16,03,15.60
2012,04,21,16,04,15.60
2012,04,21,16,05,15.60
2012,04,21,16,06,15.50
2012,04,21,16,07,15.40
2012,04,21,16,08,15.30
2012,04,21,16,09,15.30
2012,04,21,16,10,15.30
2012,04,21,16,11,15.30
2012,04,21,16,12,15.40
2012,04,21,16,13,15.50
2012,04,21,16,14,15.50
2012,04,21,16,15,15.50
2012,04,21,16,16,15.50
2012,04,21,16,17,15.60
2012,04,21,16,18,15.60
2012,04,21,16,19,15.80
2012,04,21,16,20,15.90
2012,04,21,16,21,15.90
2012,04,21,16,22,16.00
2012,04,21,16,23,16.00
2012,04,21,16,24,15.90
2012,04,21,16,25,15.80
2012,04,21,16,26,15.80
2012,04,21,16,27,15.80
2012,04,21,16,28,15.60
2012,04,21,16,29,15.60
2012,04,21,16,30,15.50
2012,04,21,16,31,15.50
2012,04,21,16,32,15.40
2012,04,21,16,33,15.40
2012,04,21,16,34,15.40
2012,04,21,16,35,15.40
2012,04,21,16,36,15.50
2012,04,21,16,37,15.50
2012,04,21,16,38,15.50
2012,04,21,16,39,15.50
2012,04,21,16,40,15.60
2012,04,21,16,41,15.60
2012,04,21,16,42,15.70
2012,04,21,16,43,15.80
2012,04,21,16,44,15.80
2012,04,21,16,45,15.80
2012,04,21,16,46,15.90
2012,04,21,16,47,15.90
2012,04,21,16,48,15.90
2012,04,21,16,49,15.90
2012,04,21,16,50,15.90
2012,04,21,16,51,15.80
2012,04,21,16,52,15.80
2012,04,21,16,53,15.80
2012,04,21,16,54,15.80
2012,04,21,16,55,15.80
2012,04,21,16,56,15.80
2012,04,21,16,57,15.80
2012,04,21,16,58,15.80
2012,04,21,16,59,15.80
2012,04,21,17,00,15.80
2012,04,21,17,01,15.80
2012,04,21,17,02,15.80
2012,04,21,17,03,15.80
2012,04,21,17,04,15.70
2012,04,21,17,05,15.70
2012,04,21,17,06,15.70
2012,04,21,17,07,15.60
2012,04,21,17,08,15.60
2012,04,21,17,09,15.60
2012,04,21,17,10,15.60
2012,04,21,17,11,15.60
2012,04,21,17,12,15.70
2012,04,21,17,13,15.60
2012,04,21,17,14,15.60
2012,04,21,17,15,15.70
2012,04,21,17,16,15.70
2012,04,21,17,17,15.80
2012,04,21,17,18,15.80
2012,04,21,17,19,15.70
2012,04,21,17,20,15.70
2012,04,21,17,21,15.70
2012,04,21,17,22,15.70
2012,04,21,17,23,15.70
2012,04,21,17,24,15.70
2012,04,21,17,25,15.80
2012,04,21,17,26,15.80
2012,04,21,17,27,15.80
2012,04,21,17,28,15.80
2012,04,21,17,29,15.80
2012,04,21,17,30,15.80
2012,04,21,17,31,15.80
2012,04,21,17,32,15.80
2012,04,21,17,33,15.80
2012,04,21,17,34,15.80
2012,04,21,17,35,15.80
2012,04,21,17,36,15.90
2012,04,21,17,37,15.90
2012,04,21,17,38,16.00
2012,04,21,17,39,16.10
2012,04,21,17,40,16.10
2012,04,21,17,41,16.10
2012,04,21,17,42,16.20
2012,04,21,17,43,16.20